Temp
88 87 86 85 84 82 81 77 77 76 76 76 76 76 76 76 75 76 77 76 76 80 81 80 78 82 76 80 76 75 75 75 75 75 74 75 74 74 74 73 73 73 72 71 74 71 72 74 73 73 74 75 74 86 90 90 90 90 88 76 82 81
87 88 88 85 87 84 81 80 82 80 80 78 77 77 78 81 78 80 77 78 81 83 84 83 82 80 81 80 78 75 75 75 75 75 74 74 74 74 73 73 72 72 71 73 70 82 81 74 71 74 76 75 84 91 89 89 90 82 78 82 81 78
89 87 87 87 87 86 84 84 84 82 82 79 80 80 82 82 84 83 84 85 84 84 86 84 83 83 83 78 79 74 75 75 74 75 74 74 74 73 72 72 70 71 72 71 81 90 91 89 85 73 75 83 91 90 89 89 83 80 81 79 80 75
88 87 86 86 87 86 85 85 85 84 84 83 82 82 84 84 85 85 85 84 85 84 84 83 81 79 79 81 78 74 74 74 74 74 74 76 72 73 70 69 70 69 74 83 91 92 93 92 89 88 89 91 90 89 89 89 82 82 80 82 81 73
87 86 86 87 86 86 85 85 87 86 86 86 84 84 84 83 84 84 85 84 86 84 84 84 82 81 83 83 83 81 79 81 81 81 74 83 84 85 80 88 85 81 90 90 92 90 91 91 90 91 90 90 89 89 89 90 78 78 80 76 76 73
86 86 85 86 86 86 85 85 86 87 86 86 85 84 85 84 84 83 85 85 85 82 83 84 83 83 84 84 84 85 84 85 84 84 82 84 87 86 87 89 89 90 90 90 89 90 90 90 90 90 90 89 89 88 90 76 78 79 78 77 75 73
85 85 85 86 87 87 86 86 86 87 85 85 85 84 84 85 84 83 84 84 83 83 83 84 83 83 83 84 83 84 85 84 83 84 84 86 85 86 88 88 89 88 89 90 90 90 90 90 90 91 89 90 89 90 80 78 79 80 80 77 74 72
84 84 84 86 86 87 86 85 86 85 85 85 85 84 84 84 84 83 83 83 82 84 84 84 82 82 82 83 82 83 84 84 85 86 85 86 86 87 88 89 88 89 90 90 91 90 91 91 89 89 89 88 88 89 76 80 80 79 79 75 78 74
84 84 84 85 85 87 86 86 86 85 84 85 85 85 85 84 83 83 83 82 82 82 85 83 82 82 83 82 82 83 83 84 85 87 86 85 87 86 87 88 87 89 88 89 89 88 91 91 88 87 89 89 89 86 74 79 79 79 78 75 77 76
83 83 84 84 85 85 85 85 85 85 85 84 84 85 85 84 84 84 83 82 83 82 83 84 82 83 83 81 82 81 82 84 84 86 85 84 87 87 87 88 87 88 90 88 89 88 89 89 87 88 90 89 86 87 74 77 79 78 78 77 76 75
83 83 85 83 85 84 84 84 86 86 85 84 84 84 84 83 83 83 83 82 83 83 82 84 82 83 83 82 82 81 82 84 85 85 85 86 86 87 87 87 87 87 88 89 89 89 89 88 90 91 90 90 87 86 79 74 75 78 76 77 76 75
82 83 83 83 83 84 84 85 85 86 86 85 84 84 84 84 83 84 84 81 81 82 81 82 82 82 82 82 83 83 83 84 84 86 86 86 86 86 87 88 86 86 86 87 87 88 88 89 90 92 90 90 88 85 84 73 74 79 78 75 76 76
83 81 81 81 82 83 83 85 85 85 86 85 84 83 83 83 83 83 81 81 81 81 81 82 80 81 82 83 83 82 83 83 84 85 85 84 85 84 86 85 84 86 86 86 86 86 89 88 88 88 89 89 86 87 84 82 72 73 73 76 77 79
81 80 80 81 81 82 83 84 85 85 85 84 84 84 84 83 83 83 81 81 81 81 81 83 83 81 82 83 82 82 83 84 85 84 84 83 84 86 86 86 86 85 84 85 85 85 86 86 85 86 86 87 85 73 77 80 80 79 75 76 77 79
80 80 79 80 81 81 82 84 85 85 85 84 84 84 85 84 83 83 82 82 81 80 81 83 83 82 82 83 82 83 82 85 84 84 84 84 85 85 86 85 86 85 84 85 86 85 86 85 84 85 84 82 75 72 74 79 79 79 79 78 78 79
80 79 79 79 80 80 81 82 84 84 84 83 85 84 84 84 84 84 83 81 81 81 81 83 83 83 81 83 84 84 84 85 83 84 84 84 84 85 85 84 84 84 82 85 85 84 85 84 79 73 74 75 78 73 74 77 76 77 78 79 79 79
79 79 79 79 80 80 80 81 81 83 83 82 83 84 85 84 84 83 83 82 81 81 82 83 83 83 82 82 84 84 85 83 83 84 83 83 85 86 84 83 82 83 84 84 85 85 84 77 76 76 76 73 72 73 74 72 74 75 77 76 77 78
80 80 79 79 79 79 79 80 80 81 81 82 81 83 85 84 83 84 83 82 82 81 82 83 83 83 82 83 85 85 85 82 84 83 82 83 84 86 84 82 81 82 83 84 83 81 79 78 78 76 73 71 71 72 72 71 69 73 75 75 76 78
78 78 78 79 79 79 79 79 80 79 80 80 81 82 84 84 84 83 82 82 83 82 82 83 83 83 82 83 84 84 83 82 84 83 82 83 83 83 82 81 80 80 82 83 81 79 78 76 73 73 72 71 73 72 73 71 72 70 72 74 76 75
78 79 78 78 78 78 79 78 77 78 78 79 80 81 82 84 83 83 83 83 83 82 84 83 84 83 82 82 83 84 83 82 83 83 82 82 83 83 80 79 79 79 79 80 80 78 78 75 72 70 66 65 65 67 69 70 70 70 70 73 74 76
78 78 78 78 78 78 77 76 77 77 77 78 79 81 80 81 82 83 83 84 83 83 84 83 83 83 82 81 82 84 82 82 83 83 82 81 82 82 81 80 79 79 77 77 76 78 77 77 72 65 65 66 66 66 65 67 68 69 70 73 74 74
78 78 79 79 80 80 80 80 79 79 79 80 81 80 80 81 81 82 82 83 83 83 84 84 84 84 82 82 81 82 82 82 82 83 82 83 82 79 80 80 79 77 79 77 76 77 77 76 72 66 62 61 63 63 64 64 65 67 70 73 73 73
78 78 79 79 80 80 81 81 81 82 82 82 84 83 84 83 82 82 81 82 83 83 84 84 84 84 82 81 82 82 82 82 82 83 81 80 79 79 79 78 78 77 76 77 77 78 77 77 70 70 70 65 59 59 60 63 66 68 69 71 72 71
78 78 79 79 80 81 81 82 83 82 82 82 82 82 81 81 81 80 80 81 83 83 84 84 85 85 83 82 82 82 82 82 81 82 81 80 78 78 78 78 78 77 77 74 76 75 77 75 74 71 64 66 64 66 59 58 60 64 69 69 70 71
79 79 81 80 80 81 81 81 81 81 81 80 80 80 78 78 79 79 80 80 81 83 84 84 84 84 84 82 82 83 83 82 82 81 82 81 79 79 79 80 77 76 76 75 75 74 75 76 71 71 67 64 63 61 61 59 60 61 66 67 70 70
80 80 81 81 81 81 81 79 78 77 75 75 74 75 74 75 77 78 80 81 82 84 84 84 85 84 85 85 82 83 82 82 82 81 81 81 80 80 78 79 78 77 76 77 77 75 72 75 75 71 72 74 70 64 61 59 62 55 65 70 69 70
81 81 81 82 81 81 80 80 78 78 78 77 76 77 79 80 80 81 82 81 82 82 84 83 83 85 84 84 83 83 82 82 82 82 82 81 79 79 80 80 79 77 77 77 76 74 73 73 73 74 74 74 74 73 69 61 58 59 58 63 66 66
82 82 82 82 82 81 80 80 78 78 78 78 79 79 79 79 81 81 81 80 81 81 82 84 83 84 85 84 84 83 83 82 82 83 83 81 79 75 76 78 77 77 77 76 75 74 74 74 71 70 72 71 71 74 71 70 70 65 64 60 60 67
82 83 84 82 82 81 81 79 79 78 78 80 81 81 80 81 81 81 80 80 80 81 81 83 84 83 84 85 83 82 83 83 82 82 84 83 81 75 72 73 73 73 73 73 75 75 74 74 73 73 70 71 72 71 72 72 72 71 66 61 61 61
81 82 83 82 81 81 80 80 79 79 78 80 81 82 81 80 80 80 79 78 79 80 82 81 82 83 83 85 84 84 83 83 82 83 83 83 83 75 70 72 73 73 73 72 74 74 74 75 75 75 74 72 70 70 68 66 67 68 68 67 62 62
81 83 82 80 80 80 80 81 80 79 79 80 81 81 80 78 80 79 79 79 79 80 80 80 80 80 81 83 83 83 82 83 83 82 82 82 80 78 69 71 72 73 72 72 73 74 74 74 75 74 73 73 72 71 66 64 65 67 67 65 67 66
80 81 81 80 80 80 81 81 81 80 80 81 81 81 79 78 79 79 79 79 79 79 79 79 79 80 80 81 81 81 82 82 82 81 80 81 81 81 78 71 70 70 70 72 73 74 74 72 73 73 72 71 69 69 67 65 66 64 67 67 68 66
79 80 81 80 79 80 81 81 81 80 80 81 81 81 81 80 80 80 81 80 79 77 77 77 78 79 80 80 81 80 80 80 81 81 81 81 81 81 80 79 74 69 70 71 71 72 73 72 72 71 70 71 70 67 65 65 63 64 67 71 70 66
80 81 81 81 80 80 81 81 81 82 81 81 81 81 81 82 81 81 82 81 80 78 78 77 79 79 80 81 81 81 81 81 81 81 81 80 80 80 80 80 77 70 67 69 71 71 72 71 70 71 71 68 68 66 66 67 67 66 65 69 70 67
80 81 81 80 80 80 81 81 82 82 82 81 82 82 82 83 82 81 81 81 81 81 80 81 81 81 81 79 79 80 79 79 79 80 81 80 79 79 79 78 75 75 73 67 68 68 69 69 67 66 68 67 66 65 65 68 65 65 70 72 71 69
80 80 80 80 80 80 81 82 81 81 81 81 82 82 83 83 83 82 81 81 80 81 81 82 82 81 79 79 78 78 78 78 79 78 78 79 79 79 77 76 75 75 72 69 67 67 68 70 69 67 66 67 65 64 64 65 66 66 71 73 73 71
81 82 81 80 80 81 81 81 81 81 82 81 80 81 81 81 81 82 81 80 80 80 81 81 81 80 78 78 78 78 77 77 77 77 77 77 77 76 75 73 73 72 69 67 66 65 66 67 67 67 66 65 64 63 63 64 66 69 71 73 74 72
MSLP
1015.07 1015.23 1015.55 1015.83 1016.15 1016.59 1017.03 1017.39 1017.59 1017.79 1017.99 1018.27 1018.51 1018.71 1018.83 1018.95 1019.15 1019.27 1019.43 1019.59 1019.71 1019.63 1019.67 1019.83 1020.11 1019.87 1020.39 1020.31 1020.47 1020.55 1020.67 1020.79 1020.83 1020.87 1020.95 1020.95 1020.95 1020.99 1020.99 1021.03 1020.99 1020.99 1020.95 1020.87 1020.75 1020.75 1020.67 1020.55 1020.55 1020.47 1020.35 1020.23 1019.99 1019.55 1019.19 1019.19 1019.03 1018.95 1019.31 1020.91 1020.59 1020.87
1014.99 1015.15 1015.35 1015.63 1015.83 1016.23 1016.83 1017.19 1017.23 1017.59 1017.87 1018.19 1018.47 1018.67 1018.79 1018.63 1018.87 1018.95 1019.27 1019.43 1019.35 1019.23 1019.27 1019.51 1019.59 1019.87 1020.03 1020.19 1020.47 1020.63 1020.71 1020.79 1020.83 1020.91 1020.95 1020.95 1020.91 1020.95 1020.95 1020.95 1020.99 1020.95 1020.91 1020.79 1020.63 1020.27 1020.27 1020.51 1020.51 1020.39 1020.31 1019.99 1019.67 1019.23 1019.43 1019.27 1019.07 1019.87 1020.75 1020.59 1020.95 1021.39
1014.95 1015.07 1015.35 1015.55 1015.67 1015.95 1016.51 1016.79 1016.95 1017.31 1017.59 1017.95 1018.19 1018.51 1018.39 1018.43 1018.39 1018.59 1018.75 1018.91 1018.91 1018.95 1018.99 1019.23 1019.39 1019.67 1019.63 1020.07 1020.27 1020.67 1020.71 1020.79 1020.87 1020.87 1020.95 1020.95 1020.91 1020.91 1020.87 1020.91 1020.91 1020.91 1020.83 1020.71 1020.27 1019.63 1019.43 1019.75 1020.15 1020.39 1020.11 1019.75 1019.19 1019.35 1019.35 1019.35 1019.99 1020.59 1020.87 1021.15 1021.31 1021.67
1014.95 1015.15 1015.39 1015.51 1015.63 1015.83 1016.19 1016.43 1016.59 1016.99 1017.27 1017.63 1017.91 1018.19 1018.15 1018.19 1018.19 1018.15 1018.43 1018.59 1018.59 1018.91 1019.03 1019.27 1019.51 1019.83 1019.87 1020.03 1020.31 1020.63 1020.71 1020.75 1020.79 1020.87 1020.87 1020.79 1020.83 1020.75 1020.79 1020.79 1020.79 1020.75 1020.55 1020.03 1019.43 1019.31 1019.03 1019.19 1019.67 1019.67 1019.35 1019.15 1019.35 1019.47 1019.43 1019.23 1019.99 1020.75 1020.99 1021.03 1021.51 1021.99
1014.99 1015.27 1015.51 1015.51 1015.71 1015.87 1016.03 1016.31 1016.27 1016.63 1017.03 1017.19 1017.55 1017.79 1017.91 1018.07 1018.07 1018.15 1018.23 1018.43 1018.51 1018.83 1019.07 1019.07 1019.47 1019.71 1019.51 1019.55 1019.75 1020.07 1020.35 1020.27 1020.19 1020.31 1020.67 1020.23 1020.11 1020.11 1020.35 1019.91 1020.07 1020.27 1019.67 1019.47 1019.35 1019.27 1019.11 1019.19 1019.19 1019.23 1019.27 1019.27 1019.35 1019.35 1019.35 1019.27 1020.47 1020.99 1021.07 1021.79 1022.15 1022.27
1015.11 1015.31 1015.51 1015.47 1015.67 1015.79 1015.95 1016.27 1016.31 1016.47 1016.83 1017.03 1017.27 1017.63 1017.67 1017.87 1017.99 1018.23 1018.23 1018.35 1018.51 1018.95 1019.03 1018.95 1019.27 1019.31 1019.27 1019.35 1019.51 1019.59 1019.67 1019.59 1019.79 1019.83 1020.11 1019.95 1019.79 1019.79 1019.79 1019.63 1019.55 1019.55 1019.51 1019.35 1019.39 1019.31 1019.23 1019.19 1019.27 1019.31 1019.27 1019.31 1019.35 1019.47 1019.27 1020.75 1020.95 1021.23 1021.59 1021.87 1022.47 1022.63
1015.15 1015.31 1015.51 1015.39 1015.55 1015.71 1015.95 1016.07 1016.23 1016.35 1016.79 1017.03 1017.11 1017.51 1017.63 1017.75 1017.91 1018.19 1018.23 1018.35 1018.67 1018.83 1018.91 1018.91 1019.15 1019.27 1019.31 1019.27 1019.51 1019.55 1019.55 1019.59 1019.75 1019.71 1019.75 1019.71 1019.75 1019.75 1019.67 1019.55 1019.55 1019.55 1019.43 1019.35 1019.27 1019.23 1019.35 1019.27 1019.07 1019.23 1019.39 1019.31 1019.27 1019.31 1020.55 1020.99 1021.11 1021.23 1021.67 1022.11 1022.67 1022.79
1014.95 1015.15 1015.39 1015.43 1015.51 1015.71 1015.91 1016.03 1016.19 1016.47 1016.75 1016.83 1017.11 1017.39 1017.59 1017.67 1017.83 1018.15 1018.27 1018.39 1018.55 1018.55 1018.75 1018.95 1019.15 1019.35 1019.35 1019.31 1019.47 1019.47 1019.39 1019.55 1019.51 1019.43 1019.47 1019.47 1019.67 1019.55 1019.59 1019.43 1019.43 1019.43 1019.43 1019.35 1019.31 1019.23 1019.07 1019.31 1019.51 1019.27 1019.43 1019.47 1019.51 1019.51 1021.07 1020.91 1021.15 1021.59 1021.87 1022.43 1022.55 1022.91
1014.75 1015.07 1015.19 1015.31 1015.59 1015.55 1015.71 1015.95 1016.19 1016.55 1016.83 1016.83 1017.11 1017.11 1017.27 1017.55 1017.91 1018.07 1018.23 1018.43 1018.59 1018.63 1018.55 1018.79 1019.15 1019.27 1019.19 1019.39 1019.35 1019.43 1019.47 1019.47 1019.39 1019.15 1019.31 1019.51 1019.35 1019.55 1019.55 1019.47 1019.51 1019.43 1019.43 1019.31 1019.23 1019.31 1019.11 1019.19 1019.59 1019.71 1019.51 1019.55 1019.55 1020.03 1021.51 1021.23 1021.51 1021.71 1022.07 1022.39 1022.59 1022.95
1014.59 1014.83 1014.95 1015.23 1015.39 1015.63 1015.71 1015.99 1016.11 1016.39 1016.59 1016.87 1017.11 1016.99 1017.23 1017.59 1017.79 1017.95 1018.23 1018.31 1018.47 1018.63 1018.63 1018.63 1019.03 1019.03 1019.11 1019.35 1019.35 1019.39 1019.43 1019.31 1019.35 1019.19 1019.31 1019.47 1019.31 1019.31 1019.39 1019.43 1019.47 1019.35 1019.27 1019.27 1019.23 1019.31 1019.35 1019.39 1019.47 1019.43 1019.27 1019.43 1019.75 1019.95 1021.51 1021.39 1021.47 1021.79 1022.15 1022.43 1022.75 1023.03
1014.39 1014.63 1014.67 1015.27 1015.23 1015.55 1015.67 1015.87 1015.87 1016.03 1016.31 1016.67 1016.79 1017.03 1017.31 1017.59 1017.75 1017.87 1017.99 1018.31 1018.39 1018.51 1018.67 1018.55 1018.83 1018.91 1018.99 1019.15 1019.23 1019.31 1019.31 1019.15 1019.23 1019.15 1019.15 1019.15 1019.15 1019.23 1019.23 1019.31 1019.35 1019.31 1019.19 1019.15 1019.23 1019.19 1019.23 1019.27 1018.99 1018.95 1019.19 1019.43 1019.75 1019.83 1020.79 1021.83 1021.79 1021.95 1022.47 1022.55 1022.83 1023.07
1014.27 1014.51 1014.71 1015.11 1015.27 1015.43 1015.63 1015.75 1015.79 1015.87 1016.11 1016.35 1016.63 1016.95 1017.15 1017.35 1017.59 1017.71 1017.87 1018.27 1018.39 1018.51 1018.67 1018.63 1018.71 1018.83 1018.87 1018.99 1019.03 1019.11 1019.11 1019.11 1019.07 1019.03 1018.99 1019.03 1019.19 1019.11 1019.15 1019.15 1019.31 1019.31 1019.27 1019.19 1019.31 1019.15 1019.23 1019.23 1018.99 1018.79 1019.19 1019.39 1019.75 1019.99 1020.27 1021.79 1022.07 1021.83 1022.19 1022.63 1022.87 1023.03
1014.15 1014.59 1014.83 1015.11 1015.27 1015.43 1015.51 1015.63 1015.75 1015.87 1015.95 1016.23 1016.51 1016.75 1016.99 1017.23 1017.39 1017.59 1017.95 1018.19 1018.35 1018.43 1018.55 1018.59 1018.79 1018.79 1018.83 1018.83 1018.87 1019.11 1019.03 1019.07 1018.91 1018.83 1018.95 1019.11 1019.15 1019.19 1019.19 1019.35 1019.43 1019.23 1019.39 1019.31 1019.39 1019.47 1019.23 1019.27 1019.35 1019.23 1019.19 1019.39 1019.83 1019.95 1020.35 1020.91 1022.23 1022.39 1022.55 1022.59 1022.79 1022.83
1014.07 1014.55 1014.83 1014.87 1015.11 1015.35 1015.47 1015.51 1015.55 1015.71 1015.87 1016.19 1016.35 1016.59 1016.79 1016.99 1017.27 1017.55 1017.91 1018.15 1018.31 1018.35 1018.51 1018.35 1018.55 1018.75 1018.71 1018.71 1018.87 1018.99 1018.95 1018.95 1018.79 1018.95 1019.03 1019.15 1019.23 1019.11 1019.19 1019.19 1019.31 1019.35 1019.59 1019.55 1019.63 1019.55 1019.59 1019.67 1019.75 1019.67 1019.67 1019.63 1019.79 1021.31 1021.19 1021.03 1021.27 1021.59 1022.27 1022.47 1022.63 1022.63
1013.83 1014.23 1014.67 1014.87 1015.15 1015.27 1015.35 1015.39 1015.47 1015.59 1015.75 1016.07 1016.23 1016.39 1016.51 1016.79 1017.11 1017.39 1017.63 1017.95 1018.19 1018.31 1018.39 1018.27 1018.31 1018.59 1018.67 1018.55 1018.79 1018.87 1018.91 1018.71 1018.71 1018.87 1018.99 1019.03 1019.03 1018.99 1018.99 1019.23 1019.15 1019.47 1019.47 1019.47 1019.55 1019.55 1019.55 1019.71 1019.95 1020.07 1020.11 1020.23 1021.19 1022.15 1021.75 1021.47 1021.63 1021.95 1022.19 1022.51 1022.67 1022.71
1013.71 1014.03 1014.47 1014.71 1014.99 1015.19 1015.31 1015.35 1015.31 1015.43 1015.59 1015.99 1016.07 1016.23 1016.39 1016.63 1016.87 1017.11 1017.47 1017.75 1018.03 1018.11 1018.23 1018.19 1018.27 1018.39 1018.63 1018.47 1018.55 1018.63 1018.67 1018.55 1018.91 1018.87 1018.87 1018.99 1018.99 1019.07 1019.03 1019.27 1019.31 1019.43 1019.75 1019.67 1019.63 1019.83 1019.63 1019.87 1020.63 1021.43 1021.39 1021.31 1021.19 1021.87 1021.87 1021.87 1022.15 1022.35 1022.47 1022.55 1022.63 1022.75
1013.71 1013.83 1014.19 1014.51 1014.79 1015.07 1015.19 1015.39 1015.39 1015.39 1015.63 1015.91 1016.11 1016.19 1016.19 1016.43 1016.67 1016.95 1017.31 1017.55 1017.79 1017.95 1018.03 1018.07 1018.15 1018.27 1018.43 1018.43 1018.35 1018.39 1018.39 1018.71 1018.75 1018.79 1018.99 1018.99 1018.95 1018.75 1019.11 1019.51 1019.55 1019.43 1019.39 1019.63 1019.71 1019.91 1019.91 1020.83 1021.23 1021.23 1021.31 1021.63 1021.95 1021.99 1022.11 1022.43 1022.63 1022.71 1022.75 1022.99 1023.03 1023.03
1013.51 1013.67 1013.91 1014.31 1014.63 1014.87 1015.07 1015.23 1015.43 1015.51 1015.71 1015.95 1016.15 1016.03 1016.03 1016.27 1016.63 1016.87 1017.11 1017.39 1017.51 1017.75 1017.83 1017.87 1017.99 1018.15 1018.27 1018.23 1018.15 1018.27 1018.35 1018.71 1018.63 1018.83 1018.95 1018.95 1018.87 1018.75 1019.03 1019.43 1019.75 1019.51 1019.43 1019.55 1019.91 1020.27 1020.59 1020.99 1021.23 1021.67 1022.07 1022.27 1022.27 1022.39 1022.59 1022.79 1022.67 1022.67 1023.11 1023.35 1023.31 1023.35
1013.51 1013.71 1013.99 1014.19 1014.47 1014.71 1014.91 1015.19 1015.31 1015.59 1015.79 1016.03 1016.11 1016.07 1016.03 1016.27 1016.47 1016.71 1017.03 1017.19 1017.35 1017.51 1017.67 1017.67 1017.83 1017.95 1018.19 1018.23 1018.19 1018.23 1018.39 1018.63 1018.55 1018.79 1018.95 1018.99 1019.03 1019.11 1019.35 1019.55 1019.75 1019.83 1019.59 1019.55 1020.07 1020.51 1020.79 1021.35 1021.83 1022.11 1022.51 1022.79 1022.67 1022.91 1022.87 1023.15 1023.07 1023.15 1023.35 1023.47 1023.59 1023.83
1013.35 1013.55 1013.83 1014.15 1014.35 1014.67 1014.87 1015.31 1015.67 1015.71 1015.91 1016.03 1015.95 1016.07 1016.19 1016.23 1016.31 1016.59 1016.83 1017.03 1017.11 1017.35 1017.35 1017.47 1017.59 1017.75 1017.99 1018.07 1018.11 1018.19 1018.39 1018.55 1018.55 1018.71 1018.99 1019.07 1019.03 1019.11 1019.55 1019.71 1019.83 1019.95 1020.11 1020.11 1020.23 1020.67 1020.83 1021.47 1022.07 1022.63 1023.27 1023.43 1023.43 1023.43 1023.47 1023.47 1023.59 1023.83 1023.91 1023.87 1023.91 1023.83
1013.11 1013.27 1013.59 1013.91 1014.23 1014.51 1014.91 1015.27 1015.43 1015.63 1015.91 1015.91 1015.95 1015.91 1016.27 1016.31 1016.35 1016.47 1016.63 1016.75 1016.95 1017.07 1017.11 1017.27 1017.31 1017.51 1017.83 1017.99 1018.03 1018.03 1018.31 1018.51 1018.43 1018.59 1018.87 1018.99 1018.91 1019.03 1019.27 1019.47 1019.71 1019.87 1020.31 1020.55 1020.83 1020.67 1020.95 1021.11 1022.07 1023.35 1023.63 1023.79 1023.91 1023.99 1024.07 1024.07 1024.31 1024.19 1024.19 1024.03 1023.95 1024.07
1012.95 1013.07 1013.23 1013.35 1013.63 1013.99 1014.19 1014.55 1015.03 1015.31 1015.43 1015.47 1015.71 1015.99 1016.27 1016.27 1016.35 1016.39 1016.55 1016.59 1016.71 1016.83 1016.87 1016.99 1017.15 1017.27 1017.55 1017.79 1018.03 1018.11 1018.31 1018.43 1018.47 1018.51 1018.67 1018.63 1018.79 1019.11 1019.35 1019.55 1019.79 1020.23 1019.99 1020.35 1020.79 1020.67 1020.91 1021.15 1022.19 1022.95 1023.95 1024.51 1024.63 1024.71 1024.59 1024.51 1024.59 1024.55 1024.19 1024.03 1024.03 1024.23
1012.71 1012.79 1012.87 1012.99 1013.15 1013.59 1013.63 1013.99 1014.35 1014.63 1014.91 1015.15 1014.95 1015.27 1015.51 1015.71 1015.99 1016.27 1016.43 1016.47 1016.51 1016.55 1016.63 1016.75 1016.91 1017.07 1017.39 1017.63 1017.83 1017.95 1018.15 1018.19 1018.35 1018.39 1018.75 1018.91 1019.03 1019.31 1019.39 1019.63 1019.83 1020.11 1020.39 1020.27 1020.39 1020.43 1020.71 1020.79 1021.87 1022.43 1022.71 1023.79 1024.87 1025.03 1025.11 1024.87 1024.71 1024.67 1024.43 1024.31 1024.27 1024.55
1012.47 1012.55 1012.59 1012.75 1012.95 1013.11 1013.35 1013.67 1014.03 1014.35 1014.59 1014.75 1015.07 1015.27 1015.59 1015.59 1015.91 1016.19 1016.47 1016.35 1016.27 1016.35 1016.35 1016.55 1016.67 1016.87 1017.11 1017.39 1017.59 1017.79 1017.87 1018.07 1018.23 1018.27 1018.55 1018.87 1019.15 1019.27 1019.39 1019.59 1019.75 1019.99 1020.07 1020.83 1020.59 1020.83 1020.43 1020.79 1021.27 1021.87 1023.59 1023.19 1023.67 1023.59 1024.99 1025.39 1025.23 1024.99 1024.63 1024.71 1024.67 1024.71
1012.23 1012.31 1012.19 1012.35 1012.67 1012.83 1013.27 1013.79 1014.15 1014.39 1014.59 1015.07 1015.11 1015.43 1015.87 1015.95 1015.95 1016.11 1016.19 1016.35 1016.31 1016.15 1016.15 1016.35 1016.43 1016.63 1016.83 1017.19 1017.35 1017.51 1017.67 1017.83 1018.03 1018.19 1018.31 1018.63 1018.95 1019.03 1019.15 1019.23 1019.63 1019.83 1019.99 1020.27 1020.63 1020.67 1020.63 1020.59 1021.67 1021.55 1022.19 1023.23 1023.87 1024.15 1023.99 1024.67 1024.91 1025.27 1024.79 1024.91 1024.87 1024.87
1011.87 1011.95 1011.95 1012.11 1012.31 1012.47 1012.99 1013.67 1014.31 1014.87 1015.35 1015.63 1015.95 1015.91 1016.07 1016.07 1016.07 1016.19 1016.11 1015.91 1015.99 1015.91 1015.99 1016.15 1016.27 1016.43 1016.55 1016.79 1017.23 1017.31 1017.47 1017.67 1017.83 1018.03 1018.19 1018.39 1018.67 1018.67 1018.99 1019.19 1019.35 1019.55 1019.83 1019.79 1019.95 1020.51 1020.91 1020.59 1020.67 1021.35 1021.39 1021.11 1021.47 1022.67 1023.39 1024.31 1024.23 1025.59 1024.83 1024.31 1024.71 1024.87
1011.55 1011.67 1011.67 1011.79 1012.07 1012.19 1012.79 1013.31 1013.91 1014.19 1014.47 1014.87 1015.27 1015.23 1015.03 1015.15 1015.39 1015.51 1015.55 1015.79 1015.83 1015.75 1015.79 1016.03 1016.15 1016.19 1016.39 1016.59 1016.91 1017.11 1017.27 1017.39 1017.55 1017.75 1017.95 1018.19 1018.63 1018.63 1018.71 1018.95 1019.11 1019.31 1019.51 1019.71 1019.91 1020.39 1020.51 1020.75 1020.91 1020.87 1020.87 1021.07 1021.11 1021.19 1021.95 1023.39 1024.31 1024.43 1025.23 1024.95 1024.95 1025.23
1011.03 1011.31 1011.35 1011.47 1011.79 1011.91 1012.39 1012.91 1013.55 1013.95 1014.07 1014.39 1014.55 1014.63 1014.91 1015.07 1015.03 1015.15 1015.47 1015.63 1015.67 1015.79 1015.75 1015.75 1016.03 1016.07 1016.19 1016.43 1016.67 1016.91 1016.99 1017.19 1017.35 1017.47 1017.67 1018.03 1018.51 1018.83 1018.79 1018.83 1019.07 1019.19 1019.35 1019.47 1019.67 1020.03 1020.19 1020.23 1020.75 1020.95 1020.87 1021.07 1021.19 1021.11 1021.71 1021.83 1021.91 1022.59 1023.15 1024.59 1025.15 1024.91
1010.91 1010.91 1011.03 1011.27 1011.55 1011.87 1012.07 1012.47 1013.03 1013.47 1013.91 1013.75 1013.87 1014.03 1014.43 1014.67 1014.95 1015.03 1015.39 1015.39 1015.55 1015.63 1015.71 1015.63 1015.71 1015.95 1016.03 1016.15 1016.43 1016.67 1016.79 1016.95 1017.19 1017.31 1017.39 1017.59 1018.07 1018.95 1018.99 1019.03 1019.27 1019.43 1019.55 1019.43 1019.31 1019.35 1019.71 1019.87 1020.03 1020.23 1020.91 1021.03 1021.15 1021.43 1021.55 1021.71 1021.91 1021.99 1022.59 1023.75 1024.35 1024.87
1010.79 1010.79 1010.75 1011.07 1011.35 1011.71 1012.03 1012.31 1012.71 1013.03 1013.43 1013.55 1013.51 1013.67 1014.11 1014.67 1014.87 1014.95 1015.27 1015.43 1015.47 1015.51 1015.55 1015.75 1015.75 1015.79 1015.95 1015.95 1016.15 1016.35 1016.55 1016.75 1016.95 1017.03 1017.19 1017.35 1017.63 1018.79 1019.31 1018.91 1018.71 1018.95 1019.07 1019.27 1019.11 1019.19 1019.31 1019.27 1019.43 1019.63 1019.95 1020.31 1020.95 1021.39 1021.99 1022.43 1022.27 1022.27 1022.39 1022.67 1023.63 1024.27
1010.47 1010.47 1010.75 1011.11 1011.31 1011.63 1011.83 1012.07 1012.31 1012.51 1012.91 1013.15 1013.31 1013.55 1014.19 1014.67 1014.71 1014.91 1015.11 1015.27 1015.35 1015.47 1015.55 1015.75 1015.79 1015.87 1015.87 1015.91 1016.03 1016.19 1016.39 1016.51 1016.59 1016.87 1017.07 1017.23 1017.63 1018.07 1019.51 1019.27 1018.67 1018.43 1018.79 1018.95 1018.99 1018.99 1019.07 1019.11 1019.23 1019.51 1019.71 1019.87 1020.19 1020.51 1021.23 1021.67 1021.91 1021.95 1022.15 1022.55 1022.79 1023.31
1010.27 1010.35 1010.55 1010.83 1011.15 1011.35 1011.55 1011.71 1011.87 1012.11 1012.55 1012.67 1012.91 1013.31 1013.95 1014.39 1014.47 1014.71 1014.83 1015.11 1015.19 1015.39 1015.63 1015.67 1015.79 1015.79 1015.87 1015.87 1016.07 1016.19 1016.23 1016.31 1016.47 1016.71 1016.99 1016.99 1017.11 1017.31 1017.79 1018.91 1019.03 1018.55 1018.39 1018.47 1018.59 1018.75 1018.83 1019.11 1019.15 1019.27 1019.51 1019.71 1019.99 1020.27 1020.75 1021.19 1021.63 1022.19 1022.23 1022.19 1022.19 1022.87
1009.95 1010.11 1010.27 1010.51 1010.91 1011.03 1011.23 1011.39 1011.51 1011.79 1012.15 1012.35 1012.63 1012.95 1013.31 1013.67 1013.87 1014.23 1014.39 1014.79 1015.15 1015.51 1015.71 1015.87 1015.75 1015.79 1015.75 1015.83 1015.99 1016.15 1016.23 1016.35 1016.43 1016.51 1016.63 1016.71 1016.83 1017.03 1017.11 1017.39 1018.11 1018.79 1018.35 1018.23 1018.27 1018.55 1018.67 1018.87 1018.95 1019.27 1019.39 1019.51 1019.87 1020.27 1020.67 1020.91 1021.19 1021.75 1022.19 1021.75 1022.03 1022.79
1009.47 1009.55 1009.83 1010.19 1010.51 1010.79 1010.87 1010.91 1011.03 1011.31 1011.67 1012.11 1012.47 1012.67 1012.87 1013.11 1013.35 1013.75 1013.99 1014.39 1014.75 1015.15 1015.51 1015.55 1015.51 1015.63 1015.47 1015.67 1015.75 1015.83 1015.95 1016.03 1016.11 1016.23 1016.39 1016.55 1016.63 1016.83 1016.95 1017.03 1017.51 1018.51 1018.63 1018.23 1018.15 1018.39 1018.43 1018.59 1018.87 1019.03 1019.35 1019.63 1019.79 1020.15 1020.43 1020.67 1021.15 1021.47 1022.19 1021.95 1021.95 1022.39
1009.19 1009.31 1009.55 1009.75 1010.07 1010.35 1010.51 1010.55 1010.75 1010.95 1011.39 1011.75 1012.07 1012.31 1012.43 1012.59 1012.95 1013.35 1013.71 1014.03 1014.31 1014.59 1014.87 1014.91 1014.99 1015.11 1015.27 1015.59 1015.71 1015.75 1015.87 1016.07 1016.11 1016.19 1016.27 1016.43 1016.55 1016.71 1016.87 1017.11 1017.51 1017.63 1017.95 1018.63 1018.39 1018.59 1018.75 1018.67 1019.03 1019.43 1019.59 1019.63 1019.87 1020.19 1020.31 1020.39 1020.83 1021.63 1021.71 1021.15 1021.51 1021.87
1008.59 1008.83 1009.11 1009.51 1009.83 1009.95 1010.15 1010.19 1010.47 1010.83 1011.11 1011.43 1011.67 1011.87 1012.11 1012.27 1012.59 1012.83 1013.35 1013.79 1014.15 1014.27 1014.35 1014.47 1014.55 1014.87 1015.23 1015.47 1015.67 1015.79 1015.91 1016.03 1016.07 1016.23 1016.35 1016.43 1016.51 1016.59 1016.83 1017.15 1017.43 1017.63 1018.11 1018.59 1018.67 1018.71 1018.67 1018.63 1018.83 1019.07 1019.35 1019.59 1019.99 1020.19 1020.23 1020.31 1020.55 1021.19 1021.11 1020.75 1020.95 1021.39
1008.19 1008.39 1008.71 1009.03 1009.43 1009.63 1009.79 1010.07 1010.27 1010.47 1010.87 1011.27 1011.55 1011.75 1011.87 1012.11 1012.39 1012.63 1013.03 1013.51 1013.87 1014.07 1014.19 1014.31 1014.55 1014.79 1015.19 1015.39 1015.55 1015.75 1015.95 1016.03 1016.15 1016.27 1016.39 1016.51 1016.63 1016.83 1017.07 1017.43 1017.59 1017.99 1018.59 1018.99 1019.03 1019.23 1019.03 1018.87 1018.79 1019.07 1019.51 1019.83 1020.27 1020.51 1020.51 1020.43 1020.67 1020.75 1020.75 1020.63 1020.67 1021.07
Wind_Speed
14 16 15 13 11 12 13 16 14 15 15 15 14 13 13 12 14 13 12 12 11 9 8 8 8 8 10 9 7 8 9 8 6 6 5 5 4 3 3 2 3 3 1 0 2 3 3 1 1 2 0 4 7 6 3 2 3 2 8 9 7 9
12 15 14 11 10 10 12 14 13 13 12 13 13 12 11 10 13 11 12 10 8 7 6 7 7 9 8 8 7 7 8 8 6 6 5 4 3 2 2 1 1 1 1 4 6 6 7 5 3 3 4 7 7 3 3 3 1 9 9 7 8 11
13 14 14 12 9 10 13 12 12 12 10 12 12 12 10 10 9 11 10 8 7 6 6 6 6 7 6 7 9 7 8 7 6 6 5 4 3 2 2 2 2 3 4 8 8 4 5 6 4 5 8 7 2 3 4 2 9 6 8 8 8 15
12 14 12 10 9 9 11 10 10 10 10 10 11 10 11 9 8 9 9 7 6 6 6 5 8 6 8 7 9 9 8 8 7 6 5 6 7 6 5 8 7 6 9 8 5 5 4 5 6 6 4 3 3 5 5 3 10 8 6 10 10 18
11 12 12 9 9 9 10 9 9 10 9 9 9 10 9 9 8 9 9 7 7 6 6 6 7 7 7 6 7 7 7 7 7 7 8 6 6 6 7 6 7 7 5 4 3 2 3 3 3 3 3 3 4 4 4 4 11 6 9 9 11 14
12 12 12 9 9 9 9 9 9 9 9 9 9 9 8 8 8 8 8 7 7 7 7 6 7 6 6 5 5 5 5 5 5 5 6 5 5 4 5 4 5 5 4 4 3 3 3 3 4 3 4 4 4 4 4 11 7 9 9 9 11 11
12 11 12 10 9 8 8 8 8 8 9 9 8 9 8 8 8 9 9 8 7 7 6 5 6 5 5 5 4 4 4 4 5 5 5 5 4 4 4 4 4 4 3 3 4 4 4 3 2 4 4 5 4 4 11 4 8 8 9 10 11 13
12 12 11 11 10 8 8 8 8 8 8 8 8 8 8 8 8 8 8 7 7 7 6 5 5 5 5 4 4 4 3 4 4 4 4 4 5 5 5 4 4 4 5 4 5 5 4 5 3 2 4 4 5 5 11 6 8 10 9 9 10 14
13 13 11 11 9 7 8 9 9 8 8 7 8 7 7 7 7 8 8 8 8 6 6 5 5 5 5 5 5 4 4 4 4 4 4 4 4 4 5 5 4 4 4 5 4 4 4 4 4 3 4 5 5 8 11 8 8 9 9 9 9 13
14 13 12 11 9 8 8 9 10 9 8 8 8 7 7 7 7 7 7 8 8 7 6 6 5 5 5 5 5 4 4 4 4 3 4 5 5 4 5 4 4 5 6 4 4 4 3 4 5 6 5 5 5 7 11 7 8 9 9 9 10 12
14 13 11 11 10 9 8 9 9 9 8 8 8 7 7 7 7 7 7 8 8 7 6 5 5 5 5 5 5 5 5 4 4 4 4 5 4 5 4 4 4 4 4 4 3 4 5 4 4 6 5 6 6 5 12 8 5 10 9 7 9 10
13 12 11 11 10 10 9 9 9 8 8 8 8 8 8 7 7 7 7 8 8 7 7 6 6 5 5 5 5 5 4 4 4 4 5 4 5 4 5 4 4 3 2 2 4 3 3 4 4 3 6 6 6 6 8 12 5 8 10 10 8 9
13 12 12 11 10 9 9 9 9 9 8 8 8 8 8 7 7 6 6 8 8 8 7 6 6 6 5 5 4 4 5 4 4 4 3 4 4 4 4 5 5 5 4 4 3 3 3 3 3 3 5 7 6 7 6 9 10 7 7 9 8 9
12 13 13 11 10 9 9 9 9 8 8 8 8 8 8 7 7 6 7 8 8 8 7 6 7 6 6 5 5 5 5 5 4 4 4 4 5 5 5 6 5 5 4 4 4 4 4 4 4 5 4 6 5 9 2 6 7 8 9 9 8 7
13 13 12 11 11 10 10 9 9 9 8 8 8 8 8 7 7 7 7 7 8 8 8 7 7 6 6 5 6 6 5 5 4 4 5 5 5 6 6 6 5 4 4 4 3 3 3 5 6 7 6 2 10 6 1 6 7 7 7 7 7 6
14 14 13 12 11 10 10 9 9 9 8 9 8 8 8 7 7 7 7 7 9 9 8 8 7 7 6 6 6 6 6 4 4 5 5 6 6 6 5 4 3 3 4 4 5 5 4 6 7 7 3 3 5 7 5 7 7 7 6 5 6 6
14 15 14 14 12 11 10 10 9 9 8 8 8 8 8 7 7 7 7 7 8 9 9 8 8 7 6 6 6 5 6 5 5 5 5 6 6 5 5 5 3 3 2 4 5 5 6 7 7 7 7 7 4 5 6 6 6 6 5 6 6 6
11 12 12 12 12 11 10 9 9 8 8 8 8 8 7 7 7 7 7 7 8 9 9 9 9 7 6 6 6 6 6 6 6 5 5 6 5 4 4 3 3 3 4 3 4 5 7 8 7 7 7 8 7 6 6 5 4 7 6 6 6 6
10 12 11 11 12 11 9 9 8 8 8 8 8 8 7 8 7 7 7 8 9 9 9 10 9 8 7 6 6 6 6 6 6 5 6 6 6 5 4 3 3 3 3 4 4 7 8 8 9 9 8 7 7 7 7 6 4 6 6 6 6 5
12 12 11 11 10 9 9 9 9 9 9 9 8 8 8 8 7 7 8 9 9 9 9 9 10 9 7 6 6 7 7 6 6 6 6 6 6 5 6 5 5 5 5 4 6 8 10 10 10 11 11 10 10 8 6 8 8 7 6 6 5 5
12 12 11 11 10 10 10 9 9 10 9 9 9 8 8 8 8 7 8 9 9 9 9 10 10 9 8 7 6 6 7 6 6 6 6 6 5 5 5 5 5 5 6 6 7 8 10 11 12 10 10 10 10 10 8 7 7 6 6 5 5 5
12 13 13 12 11 11 10 9 9 10 9 9 9 9 9 9 9 8 9 9 9 9 10 11 10 9 8 8 7 6 7 7 6 6 6 5 5 5 6 5 5 5 6 6 7 9 9 9 9 10 10 8 9 7 6 5 6 6 6 5 5 5
12 13 13 12 11 10 10 10 9 8 9 8 8 8 8 8 8 9 9 10 10 10 11 11 10 10 8 8 7 7 7 6 7 6 6 6 6 7 6 7 7 6 6 5 6 7 10 7 7 9 10 10 8 6 4 5 5 6 6 5 5 5
13 13 13 13 11 10 11 10 10 8 9 8 7 8 7 8 9 9 10 10 10 10 11 11 11 10 8 8 8 7 7 7 7 7 6 6 7 7 6 7 7 7 6 7 7 8 8 8 6 12 9 5 8 7 7 5 6 5 5 5 5 5
14 14 13 14 13 11 11 10 9 9 8 8 6 7 8 9 9 9 9 10 10 11 12 11 11 10 9 9 8 7 7 7 7 7 7 6 7 7 7 6 8 7 9 7 7 7 8 6 9 4 6 7 5 6 5 9 9 6 6 5 5 5
13 13 13 15 15 12 11 11 12 11 11 10 9 9 10 10 9 10 10 9 11 12 12 11 10 10 9 8 8 8 8 7 7 7 7 6 6 6 7 7 8 8 8 8 6 8 8 8 7 10 9 4 4 4 8 10 8 6 5 4 5 4
14 13 13 14 16 12 13 12 13 12 11 11 10 9 8 8 9 9 8 10 10 10 12 11 10 10 9 9 8 8 8 8 7 6 6 6 7 6 7 7 7 8 8 7 8 8 11 9 8 7 7 4 4 4 12 12 6 9 8 6 6 5
14 13 12 13 16 13 13 13 14 12 10 10 10 9 9 9 9 9 9 11 10 10 10 11 10 10 10 10 9 8 8 8 7 7 6 7 5 2 4 6 8 8 8 9 9 8 9 9 12 10 8 8 3 7 14 7 12 11 9 10 9 7
15 14 13 15 15 16 12 13 13 11 11 9 10 8 8 9 9 9 11 10 11 11 10 10 10 10 10 10 9 9 9 8 7 7 7 7 8 8 7 8 9 10 9 10 9 10 8 10 10 10 11 9 7 7 9 4 7 7 7 9 8 10
17 14 13 15 16 17 16 13 13 13 13 11 10 9 9 9 10 10 11 11 10 9 8 8 9 9 9 10 10 9 9 9 8 8 7 6 6 9 5 7 8 10 12 12 11 11 11 10 9 9 11 10 9 9 8 6 6 8 7 8 9 12
18 14 13 14 16 17 16 15 13 14 14 13 13 11 10 11 10 11 10 11 10 8 8 7 6 7 8 9 9 9 8 8 8 7 7 7 7 8 9 8 9 10 12 14 12 12 11 10 9 9 10 11 11 11 12 12 11 10 9 9 8 9
17 17 15 15 17 17 17 16 14 13 14 13 14 11 13 12 12 12 11 10 9 8 9 8 8 8 8 9 8 8 8 8 8 7 7 7 6 7 8 10 10 9 9 10 11 11 11 10 14 10 11 10 8 6 5 5 5 2 4 5 7 10
18 19 17 16 17 19 18 17 14 13 13 12 13 13 13 13 12 11 11 11 10 9 7 8 9 8 8 10 8 8 8 8 7 7 8 8 7 6 6 7 10 12 11 8 7 11 10 12 13 11 11 10 6 6 5 4 6 7 4 5 6 9
18 19 18 17 18 19 19 16 13 13 13 14 14 13 12 11 12 10 10 11 11 10 10 10 9 9 8 8 8 7 7 7 7 8 8 8 8 6 6 7 2 6 16 11 7 9 12 12 10 11 7 8 8 6 6 6 6 5 8 9 9 9
17 18 18 18 17 19 18 15 13 13 13 13 14 13 11 10 11 11 10 11 11 10 10 9 9 8 7 7 8 7 7 7 7 7 7 7 6 5 5 5 6 6 7 14 11 7 8 11 7 4 7 9 7 6 6 6 6 6 10 10 8 10
19 19 18 18 17 18 18 13 14 14 14 14 13 13 11 10 10 10 10 11 11 10 9 8 8 8 7 7 8 7 7 6 5 5 6 7 6 6 5 4 4 3 3 4 12 11 11 9 11 11 11 8 6 7 5 5 7 7 9 9 8 9
18 17 18 18 18 17 17 16 15 15 15 14 14 14 13 13 12 11 10 10 10 9 9 8 7 7 7 7 6 6 6 6 6 5 5 4 5 4 3 2 3 2 5 5 4 5 4 6 2 4 4 5 3 1 2 2 3 7 8 7 7 8
Wind_Direction
174 175 174 174 173 169 164 164 160 158 158 159 157 167 171 172 161 155 160 159 163 172 163 150 169 161 151 167 163 139 152 149 161 159 144 136 120 112 99 92 79 75 91 25 269 210 146 135 162 312 299 249 232 232 79 95 96 109 63 77 80 88
175 176 173 174 173 171 160 177 169 163 168 164 162 169 173 176 176 162 170 163 177 174 171 160 168 145 172 147 153 152 162 165 164 161 160 151 132 150 152 91 85 70 301 254 251 218 165 145 185 220 226 229 235 109 142 92 103 63 68 89 84 95
176 178 175 176 172 173 166 178 172 168 170 170 167 178 176 178 176 171 173 179 181 173 179 165 163 169 154 156 136 163 160 163 169 170 175 172 172 171 190 197 221 256 263 252 237 203 177 146 137 190 217 224 121 122 102 122 65 64 74 93 87 100
182 180 176 179 175 172 170 182 172 170 180 176 173 180 183 182 182 180 176 179 186 167 179 176 129 151 137 158 140 166 168 165 174 182 177 198 173 193 217 227 219 239 234 220 204 194 191 157 161 178 181 154 130 126 157 144 105 71 90 82 97 93
183 180 183 181 179 175 171 185 176 172 182 181 176 181 185 185 187 184 183 183 179 171 178 176 166 169 191 164 159 170 172 188 183 178 181 219 205 166 205 200 186 204 213 201 197 179 228 154 184 159 152 142 133 148 119 105 70 103 92 96 96 108
189 182 191 185 184 176 173 183 175 179 181 183 180 182 183 187 187 181 188 187 172 177 184 179 173 178 180 167 170 172 185 175 181 188 173 217 200 200 199 205 205 189 187 195 184 184 188 179 165 167 156 149 154 153 129 64 92 90 90 96 98 100
187 186 189 191 186 176 182 179 180 180 186 181 185 182 187 187 188 179 195 183 184 181 184 183 174 186 184 176 179 182 188 169 190 194 181 214 193 194 210 193 189 198 183 187 193 158 178 178 192 158 162 162 159 150 81 107 88 94 99 97 105 106
186 187 186 193 189 185 181 183 188 180 195 181 186 185 186 192 183 188 194 187 193 191 182 183 178 181 190 186 181 184 183 176 197 193 178 215 188 191 196 191 193 183 191 185 180 187 171 148 172 160 153 149 148 135 96 101 104 101 99 104 109 99
183 188 183 191 188 188 179 189 183 187 197 177 197 194 189 186 188 191 192 191 195 197 187 183 175 181 182 181 181 174 186 191 195 195 170 198 199 183 188 193 183 190 191 188 183 178 191 150 151 167 178 162 161 114 109 108 109 107 112 117 104 98
187 187 186 188 189 188 184 189 186 190 194 180 199 199 186 191 196 195 191 197 191 195 199 184 177 181 174 172 173 176 194 188 191 182 185 186 188 189 186 183 187 199 182 197 180 157 193 166 193 172 193 162 162 129 120 125 127 119 118 116 110 104
187 188 188 188 192 189 188 191 189 189 190 190 191 194 189 195 200 198 195 195 196 192 195 193 176 181 171 169 176 175 193 183 187 180 187 180 176 189 183 182 189 196 188 193 185 156 206 193 206 185 168 172 163 141 126 119 112 124 119 100 115 106
187 188 191 188 191 194 193 194 192 192 193 190 188 194 195 199 197 200 199 192 198 188 196 188 186 183 175 173 173 182 177 182 182 172 184 172 176 183 184 172 177 182 203 201 189 178 190 205 221 158 185 165 162 147 129 125 132 123 124 125 113 107
185 182 191 190 187 194 197 196 194 197 194 192 190 196 198 198 199 199 195 197 194 191 196 184 190 189 183 178 170 174 176 176 182 171 163 167 173 177 183 172 182 183 187 192 189 177 185 170 199 152 184 158 163 148 128 126 135 129 103 122 125 119
181 180 190 191 186 193 195 196 195 195 195 193 198 198 200 200 197 199 195 194 198 195 195 193 185 187 190 178 170 182 178 177 171 153 165 170 185 184 184 189 183 187 185 195 190 166 180 156 130 143 148 165 116 54 70 111 117 124 140 127 124 126
180 181 184 191 190 195 194 197 195 198 194 197 199 202 199 200 197 201 198 191 198 192 206 194 187 179 191 181 174 180 180 180 153 168 173 179 193 185 190 191 191 191 178 182 175 159 156 135 144 139 124 46 95 113 318 113 106 109 109 113 128 114
177 179 182 186 186 194 192 200 200 196 199 196 202 203 202 202 200 200 202 195 196 196 200 194 184 183 179 192 182 177 185 158 157 181 182 172 203 191 190 190 174 196 181 182 164 155 153 132 77 44 38 141 105 137 145 110 109 108 110 126 116 111
177 178 178 185 188 188 192 195 201 197 201 195 205 205 203 202 207 203 199 202 191 195 197 191 185 184 186 188 190 185 175 162 183 172 172 180 195 198 177 183 175 177 204 190 167 145 126 95 111 120 96 76 73 85 104 86 109 110 110 107 111 111
179 179 179 183 187 189 190 192 195 198 194 201 205 209 206 203 205 206 201 204 191 192 195 188 186 180 189 193 190 193 175 171 184 175 171 182 191 189 180 179 164 174 191 199 147 131 111 107 105 101 87 99 97 98 101 97 103 117 120 125 121 111
178 178 180 182 185 189 185 191 193 201 193 201 201 209 210 206 206 203 202 202 194 191 192 188 186 182 186 190 192 193 186 177 187 186 183 197 189 193 184 177 171 161 187 180 147 118 123 121 106 104 93 81 100 108 120 107 81 83 116 128 117 113
186 180 179 183 183 187 186 189 196 197 202 201 206 201 206 211 206 206 201 200 192 195 189 189 187 184 187 190 193 193 185 187 189 193 192 206 202 192 189 177 173 174 162 145 142 129 128 125 108 91 74 67 52 57 92 111 102 100 119 127 122 118
185 180 181 182 182 187 188 188 198 201 199 196 204 202 201 209 207 203 204 197 191 196 192 189 191 187 190 186 199 191 185 189 192 198 197 208 209 198 190 187 172 176 175 172 154 140 134 135 125 95 85 81 64 55 61 73 108 119 124 132 120 115
185 183 187 185 181 187 190 195 195 199 200 198 199 202 203 205 204 201 202 198 195 195 194 190 190 189 190 187 191 192 189 190 194 199 201 205 201 180 177 178 176 178 187 187 173 160 149 152 144 136 131 107 88 70 55 67 89 113 133 120 115 112
188 188 187 186 184 185 185 191 197 192 196 197 201 200 205 199 195 201 197 200 197 196 194 192 187 191 189 190 193 190 191 192 197 196 198 196 189 184 185 183 186 193 179 187 193 171 173 199 151 150 149 133 138 134 112 93 100 115 122 114 111 107
191 191 187 186 187 179 176 184 193 191 193 201 191 190 203 200 195 199 199 202 199 197 194 192 190 191 191 191 194 192 189 194 198 200 201 200 188 195 186 192 194 195 197 183 192 181 185 205 134 152 158 184 169 173 146 140 142 121 125 117 121 132
193 193 191 184 185 175 170 180 186 190 188 192 196 189 199 201 197 196 201 197 202 197 193 193 191 194 193 191 196 196 194 193 200 200 205 203 195 200 197 195 192 195 196 199 191 180 192 199 188 181 147 134 160 203 185 154 142 132 148 148 145 134
197 195 192 186 183 177 170 180 182 185 186 188 193 195 197 196 191 196 203 194 199 197 195 191 192 195 196 193 197 199 199 199 201 204 207 207 207 198 206 205 195 199 202 207 217 180 193 200 203 176 199 178 151 183 159 158 158 153 172 178 143 132
198 197 194 187 184 179 172 184 187 187 184 185 189 194 194 197 199 197 199 194 196 196 195 191 195 196 197 196 199 202 202 208 207 207 206 208 208 206 210 214 203 206 208 203 210 211 200 196 205 207 195 188 163 183 146 151 192 132 162 171 182 173
199 198 197 191 188 187 178 182 186 189 185 184 189 183 189 192 194 193 194 194 193 192 198 196 195 200 199 198 202 204 207 210 213 210 205 206 176 162 233 223 210 209 210 214 205 213 203 194 195 198 196 195 162 162 162 167 167 169 168 171 182 185
202 203 200 196 193 192 188 180 182 183 184 185 181 177 177 192 190 190 197 190 194 190 196 200 200 201 205 206 203 207 209 212 213 216 212 207 185 166 222 227 210 203 204 207 210 212 209 197 194 199 189 191 173 170 175 182 175 192 175 159 170 178
202 204 205 200 198 196 195 189 182 183 183 180 179 175 181 185 197 191 200 191 193 193 191 194 203 205 208 209 208 210 212 215 214 219 222 213 199 146 202 244 233 209 202 200 208 215 213 204 203 201 195 189 187 182 170 195 198 205 164 172 166 180
208 207 200 200 199 197 197 197 190 184 184 178 176 174 180 188 193 196 198 195 193 190 194 191 194 204 210 214 212 213 215 214 216 219 223 222 208 185 173 223 250 241 216 200 201 214 211 209 207 206 195 200 199 194 184 187 188 189 177 181 175 169
205 206 204 202 200 201 200 201 197 184 185 183 177 177 184 187 190 195 200 196 193 195 195 192 198 202 205 210 212 215 215 218 218 220 224 228 228 215 190 188 213 236 226 211 203 208 211 204 210 210 207 202 193 180 179 158 146 149 210 189 173 161
199 203 206 202 202 204 203 201 196 187 191 191 180 181 182 186 190 196 199 198 194 193 189 202 199 205 204 207 209 213 214 218 220 221 229 232 234 219 229 217 180 200 228 223 212 203 209 212 208 212 214 206 181 173 160 120 130 157 222 212 184 153
199 199 202 205 205 206 205 200 195 192 192 198 196 185 182 184 181 192 194 197 197 192 195 204 199 205 204 206 210 211 217 221 224 224 227 236 240 238 232 238 258 200 202 222 225 213 210 208 209 213 204 193 196 168 165 163 169 157 172 218 198 163
200 197 200 203 206 208 207 198 195 194 195 200 200 194 182 181 179 180 197 198 195 197 205 204 202 198 194 195 208 209 207 214 221 229 232 240 247 245 234 241 241 230 174 198 225 221 221 208 191 179 210 211 186 166 172 161 125 149 222 213 189 164
198 195 196 200 206 209 209 199 194 193 198 201 202 197 184 181 180 180 190 200 198 200 204 202 197 189 173 195 203 206 202 212 217 220 233 243 251 254 246 246 246 233 136 136 202 209 223 217 205 197 210 205 176 180 165 165 154 180 231 216 201 169
199 196 194 197 204 207 208 204 197 198 200 199 198 198 187 178 177 180 192 199 197 199 201 204 193 182 171 196 200 200 195 196 200 214 228 239 258 274 289 263 253 202 130 114 104 171 219 224 182 208 197 175 166 120 205 153 191 211 219 216 203 175